Flag Weather past 2 weeks in Da Nang, Vietnam

Now
75 °F

Passing clouds.


Feels Like: 75 °F
Forecast: 73 / 87 °F
Wind: 1 mph from West

Location: Da Nang Airport

Current Time: Nov 29, 2014 at 2:39:54 AM

Latest Report: Nov 29, 2014 at 2:00 AM


Visibility: N/A

Pressure: 29.86 "Hg

Humidity: 89%

Dew point: 72 °F

Location of Da NangLocation

Historic Weather in Da Nang — Graph

°F

Da Nang temperature yesterday

Maximum temperature yesterday: 86 °F (at 1:30 PM)
Minimum temperature yesterday: 75 °F (at 6:00 AM)
Average temperature yesterday: 79 °F

Past Weeks' High & Low Weather Summary

 TemperatureHumidityPressure
High88 °F (Nov 27, 11:00 AM)94% (Nov 15, 2:30 AM)30.12 "Hg (Nov 15, 2:30 AM)
Low72 °F (Nov 21, 5:00 AM)52% (Nov 27, 11:00 AM)29.80 "Hg (Nov 26, 1:30 PM)
Average79 °F79%29.96 "Hg
* Reported Nov 14 1:00 AM — Nov 29 1:30 AM, Da Nang, Weather by CustomWeather, © 2014

Note: Actual official high and low records may vary slightly from our data, if they occured in-between our weather recording intervals... More about our weather records

Advertising

Da Nang weather history for previous 24 hours

 ConditionsComfort  
Time TempWeatherWind HumidityBarometerVisibility
1:30 AM
Nov 29
75 °FPassing clouds.2 mph89%29.86 "HgN/A
1:00 AM75 °FPassing clouds.No wind89%29.89 "HgN/A
12:30 AM75 °FPassing clouds.2 mph89%29.89 "HgN/A
12:00 AM75 °FPassing clouds.1 mph89%29.89 "HgN/A
11:30 PM
Nov 28
75 °FPassing clouds.1 mph94%29.89 "HgN/A
11:00 PM75 °FPassing clouds.1 mph94%29.92 "HgN/A
10:30 PM75 °FPassing clouds.1 mph94%29.92 "HgN/A
10:00 PM77 °FPassing clouds.1 mph89%29.92 "HgN/A
9:30 PM79 °FPassing clouds.2 mph84%29.92 "HgN/A
9:00 PM79 °FPassing clouds.No wind84%29.92 "HgN/A
8:30 PM79 °FPassing clouds.2 mph84%29.92 "HgN/A
8:00 PM79 °FPassing clouds.2 mph84%29.92 "HgN/A
7:30 PM79 °FPassing clouds.5 mph84%29.92 "HgN/A
7:00 PM81 °FPassing clouds.6 mph79%29.92 "HgN/A
6:30 PM79 °FPassing clouds.7 mph84%29.89 "HgN/A
6:00 PM81 °FPassing clouds.6 mph79%29.89 "HgN/A
5:30 PM81 °FPassing clouds.7 mph79%29.89 "HgN/A
5:00 PM81 °FPassing clouds.8 mph79%29.86 "HgN/A
4:30 PM81 °FPassing clouds.9 mph79%29.86 "HgN/A
4:00 PM81 °FPassing clouds.9 mph79%29.86 "HgN/A
3:30 PM82 °FPassing clouds.10 mph74%29.83 "HgN/A
3:00 PM82 °FPassing clouds.10 mph74%29.83 "HgN/A
2:30 PM84 °FPassing clouds.8 mph70%29.83 "HgN/A
2:00 PM86 °FPassing clouds.8 mph66%N/AN/A
1:30 PM86 °FPassing clouds.6 mph66%29.83 "HgN/A
1:00 PM84 °FPassing clouds.7 mph70%29.86 "HgN/A
12:30 PM82 °FPassing clouds.7 mph74%29.86 "HgN/A
12:00 PM82 °FPassing clouds.6 mph74%29.89 "HgN/A
11:30 AM84 °FScattered clouds.6 mph70%29.89 "Hg5 mi
11:00 AM84 °FScattered clouds.6 mph70%29.92 "Hg5 mi
10:30 AM84 °FScattered clouds.3 mph70%29.92 "Hg5 mi
9:30 AM82 °FScattered clouds.3 mph74%29.95 "Hg5 mi
9:00 AM82 °FScattered clouds.3 mph79%29.95 "Hg5 mi
8:30 AM81 °FScattered clouds.3 mph84%29.95 "Hg5 mi
8:00 AM79 °FScattered clouds.1 mph89%29.95 "Hg5 mi
7:30 AM77 °FPassing clouds.2 mph94%29.92 "Hg5 mi
7:00 AM77 °FScattered clouds.1 mph94%29.92 "Hg5 mi
6:30 AM75 °FLight rain. Scattered clouds.2 mph94%29.92 "Hg4 mi
6:00 AM75 °FLight rain. Scattered clouds.3 mph94%29.92 "Hg4 mi
5:30 AM77 °FPassing clouds.No wind89%29.89 "HgN/A
5:00 AM77 °FPassing clouds.No wind89%29.89 "HgN/A
4:30 AM77 °FPassing clouds.2 mph89%29.86 "HgN/A
4:00 AM77 °FPassing clouds.1 mph89%29.86 "HgN/A
3:30 AM77 °FPassing clouds.No wind89%29.86 "HgN/A
3:00 AM77 °FPassing clouds.1 mph89%29.86 "HgN/A
2:30 AM77 °FPassing clouds.No wind94%29.86 "HgN/A
2:00 AM79 °FPassing clouds.No wind89%29.86 "HgN/A
Weather by CustomWeather, © 2014

See weather overviewHow to use our weather pages